Вернуться в каталог

FENGYUN 1C DEB

АктивенPO
NORAD 37902·DEBRIS·🇨🇳 China

Запущен May 10, 1999 с Taiyuan Satellite Launch Center

Loading…

Ближайшие Пролёты (ближайшие 24 часа)

TLE

СвежийSource: Space-Track

Эпоха: Sep 14, 2026, 11:38 UTC

1 37902U 99025ENB 26257.48474028  .00001281  00000-0  14194-2 0  9998
2 37902  98.6728  89.2749 0319121 315.2839  42.2969 13.53564875667064

Отслеживайте FENGYUN 1C DEB в реальном времени с AllMySat

Download on the App Store